Weather Roundup
Issued by NWS

Home | Current Version | Previous Version | Text Only | Print | Product List | Glossary On
Versions: 1 2 3 4 5 6 7 8 9 10 11 12 13 14 15 16 17 18 19 20 21 22 23 24 25 26 27 28 29 30 31 32 33 34 35 36 37 38 39 40 41 42 43 44 45 46 47 48 49 50
000
NZUS93 KARX 270110
HRRWXR

CURRENT HOURLY OBSERVATIONS ACROSS
MUCH OF THE UPPER MISSISSIPPI VALLEY
NATIONAL WEATHER SERVICE LA CROSSE WI
800 PM CDT WED APR 26 2017


...SOUTHEAST MINNESOTA...


CITY           SKY/WX    TMP DP  RH WIND       PRES   REMARKS
ROCHESTER      LGT RAIN  38  36  92 NW13      29.53S WCI  30
ROCHESTER/MAYO CLOUDY    38  35  90 NW9G18    29.54S WCI  32
WINONA         CLOUDY    41  36  81 NW8       29.54R
AUSTIN         CLOUDY    37  34  87 NW15G21   29.55S WCI  28
ALBERT LEA     CLOUDY    37  34  87 NW10G17   29.56S WCI  30
DODGE CENTER   CLOUDY    37  36  93 NW12      29.53F WCI  30
PRESTON        CLOUDY    38  35  89 NW13      29.53S WCI  30
OWATONNA       CLOUDY    37  34  87 NW14      29.56F WCI  29
FARIBAULT      CLOUDY    37  34  87 NW8       29.57S WCI  31
$$

...ELSEWHERE IN MINNESOTA...


CITY           SKY/WX    TMP DP  RH WIND       PRES   REMARKS
MINNEAPOLIS    DRIZZLE   39  32  76 N12       29.57S WCI  32
INTNL FALLS    CLOUDY    25  18  74 NE17G25   29.70S WCI  12
DULUTH         CLOUDY    30  26  85 NE15      29.58R WCI  19
RED WING       CLOUDY    39  34  81 NW7       29.55R WCI  34
REDWOOD FALLS  CLOUDY    34  29  82 NW13      29.63S WCI  25
MANKATO        CLOUDY    36  32  85 N12       29.60R WCI  28
WORTHINGTON    CLOUDY    31  28  89 NW18      29.64R WCI  19
FAIRMONT       MIX PCPN  34  34 100 NW18      29.61S FOG     WCI  23
$$

...SOUTHWEST WISCONSIN...


CITY           SKY/WX    TMP DP  RH WIND       PRES   REMARKS
LA CROSSE      CLOUDY    44  40  85 W10       29.52S
PRAIRIE DU CHI CLOUDY    46  40  81 W8        29.52F
BOSCOBEL       CLOUDY    48  43  82 W6        29.51F
LONE ROCK      CLOUDY    49  46  90 W10       29.50S FOG
PLATTEVILLE    CLOUDY    47  47 100 W9        29.49F
FORT MC COY    CLOUDY    42  40  93 W5        29.52S
CAMP DOUGLAS   DRIZZLE   45  43  93 W9        29.49R FOG
MAUSTON-NEW LI CLOUDY    46  44  95 W8        29.49R FOG
VIROQUA        CLOUDY    42  40  95 W8        29.51S
WIS DELLS      CLOUDY    49  47  93 W8        29.48R FOG
$$

...ELSEWHERE IN WISCONSIN...


CITY           SKY/WX    TMP DP  RH WIND       PRES   REMARKS
MILWAUKEE      LGT RAIN  63  56  78 W10       29.46R
MADISON        CLOUDY    53  49  86 SW7       29.47S
GREEN BAY      CLOUDY    64  57  78 SW8       29.42R
EAU CLAIRE     CLOUDY    39  35  86 NW9       29.53R WCI  33
BLACK RVR FLS  CLOUDY    42  41  97 NW3       29.51S
MEDFORD        CLOUDY    37  37  97 NW7       29.49R FOG     WCI  32
WAUSAU         CLOUDY    44  43  96 W10       29.45S
WIS RAPIDS     CLOUDY    45  43  93 NW10      29.50R
MARSHFIELD     CLOUDY    41  38  89 NW12      29.49R
RICE LAKE      CLOUDY    36  33  88 N6        29.55R WCI  31
$$

...NORTHEAST IOWA...


CITY           SKY/WX    TMP DP  RH WIND       PRES   REMARKS
WATERLOO       CLOUDY    43  38  82 NW14      29.55R
DUBUQUE        CLOUDY    47  42  83 NW13      29.49F
DECORAH        CLOUDY    41  37  87 NW8       29.52S
MASON CITY     CLOUDY    39  34  82 NW16      29.59R WCI  30
CHARLES CITY   CLOUDY    41  39  93 NW15      29.56R
OELWEIN        CLOUDY    43  39  87 NW16      29.54F
$$

...ELSEWHERE IN IOWA...


CITY           SKY/WX    TMP DP  RH WIND       PRES   REMARKS
DES MOINES     CLOUDY    45  37  73 NW15      29.59F
IOWA CITY      CLOUDY    50  41  71 NW9       29.53F
FORT DODGE     CLOUDY    39  30  70 NW8       29.63R WCI  34
MARSHALLTOWN   CLOUDY    43  37  79 NW15      29.57R
CEDAR RAPIDS   CLOUDY    46  41  82 NW14      29.53R
$$

...NORTHERN ILLINOIS...


CITY           SKY/WX    TMP DP  RH WIND       PRES   REMARKS
CHICAGO-OHARE  CLOUDY    65  56  72 W8        29.45R
CHICAGO-MIDWAY CLOUDY    68  57  68 W9        29.46R
MOLINE         CLOUDY    51  46  83 NW7       29.50F
ROCKFORD       LGT RAIN  54  50  86 W10       29.51R
PEORIA         CLOUDY    54  53  97 N5        29.46F
$$

NOTE: "FAIR" INDICATES FEW OR NO CLOUDS BELOW 12,000 FEET WITH NO
SIGNIFICANT WEATHER AND/OR OBSTRUCTIONS TO VISIBILITY. WIND
SPEEDS ARE IN MILES-PER-HOUR.




USA.gov is the U.S. government's official web portal to all federal, state and local government web resources and services.